Location: Kellogg
(38.0159°N, 90.0546°W)
Time: 19:04:31
(UTC+00:00)

S-56A Canister/Altair - Pass Details

Date: 18 September 2024
Orbit: 636 x 2487 km, 38.9° (Epoch: 04 October)

Event Time Altitude Azimuth Distance (km) Brightness Sun altitude
Rises 21:35:52 0° 205° (SSW) 2,913 11.2 27.5°
Reaches altitude 10° 21:38:41 10° 186° (S) 2,025 10.1 27.0°
Maximum altitude 21:41:48 18° 141° (SE) 1,628 9.2 26.4°
Drops below altitude 10° 21:45:16 10° 98° (E) 2,287 9.6 25.8°
Sets 21:48:43 0° 80° (E) 3,455 10.3 25.1°
